Regional Weather Roundup
Issued by NWS

Home | Current Version | Previous Version | Graphics & Text | Print | Product List | Glossary On
Versions: 1 2 3 4 5 6 7 8 9 10 11 12 13 14 15 16 17 18 19 20 21 22 23 24 25 26 27 28 29 30 31 32 33 34 35 36 37 38 39 40 41 42 43 44 45 46 47 48 49 50
705
ASUS43 KLMK 202210
RWRKY
KENTUCKY REGIONAL WEATHER ROUNDUP
NATIONAL WEATHER SERVICE LOUISVILLE KY
500 PM EST TUE FEB 20 2018

NOTE "FAIR" INDICATES FEW OR NO CLOUDS BELOW 12,000 FEET
WITH NO SIGNIFICANT WEATHER AND/OR OBSTRUCTIONS TO VISIBILITY.

KYZ001>023-026-027-061>063-070>075-202300-
WESTERN AND SOUTH CENTRAL KENTUCKY

CITY           SKY/WX    TMP DP  RH WIND       PRES   REMARKS
PADUCAH        FAIR      76  58  53 S14G25    30.04F
HENDERSON      FAIR      73  57  57 S20G29    30.08R
OWENSBORO      FAIR      76  59  55 S23G29    30.09R
HOPKINSVILLE   FAIR      75  59  57 S16G22    30.11F
BOWLING GREEN  CLOUDY    77  59  53 S12G22    30.15S
GLASGOW        FAIR      78  55  45 SW16G23   30.16F
$$

KYZ024-025-028>034-038-045-046-053-202300-
NORTH CENTRAL KENTUCKY

CITY           SKY/WX    TMP DP  RH WIND       PRES   REMARKS
LOUISVILLE/SDF CLOUDY    78  55  44 SW28G40   30.11R
LOUISVILLE/LOU FAIR      78  56  46 S21G46    30.12R
FORT KNOX      PTSUNNY   76  57  51 S18G35    30.14R
$$

KYZ035>037-039>044-047>052-055>060-089>105-202300-
NORTHEAST KENTUCKY

CITY           SKY/WX    TMP DP  RH WIND       PRES   REMARKS
LEXINGTON      FAIR      78  54  43 SW17      30.17R
COVINGTON      CLOUDY    77  55  46 S17G30    30.10R
FRANKFORT      FAIR      78  53  41 S18G32    30.14R
$$

KYZ054-064>069-076>088-106>120-202300-
SOUTHEAST KENTUCKY

CITY           SKY/WX    TMP DP  RH WIND       PRES   REMARKS
JACKSON        FAIR      77  52  41 MISG      30.23R
LONDON         FAIR      74  55  51 SW13G21   30.25R
SOMERSET       CLOUDY    73  54  49 MISG      30.24R
MIDDLESBORO    PTSUNNY   75  54  48 SW9       30.27R
MONTICELLO     NOT AVBL
$$





USA.gov is the U.S. government's official web portal to all federal, state and local government web resources and services.